Miscellaneous Local Product
Issued by NWS Hastings, NE

Home | Current Version | Previous Version | Text Only | Print | Product List | Glossary Off
Versions: 1 2 3 4 5 6 7 8 9 10 11 12 13 14 15 16 17 18 19 20 21 22 23 24 25 26 27 28 29 30 31 32 33 34 35 36 37 38 39 40 41 42 43 44 45 46 47 48 49 50

872
AXUS43 KGID 220602
MISGRI

GID CWA HOURLY WEATHER ROUNDUP
NATIONAL WEATHER SERVICE HASTINGS NE
1200 AM CST WED FEB 22 2017

NOTE: "FAIR" INDICATES FEW OR NO CLOUDS BELOW 12,000 FEET WITH NO
SIGNIFICANT WEATHER AND/OR OBSTRUCTIONS TO VISIBILITY.

...SOUTH CENTRAL NEBRASKA...

CITY           SKY/WX    TMP DP  RH WIND       PRES   REMARKS
GRAND ISLAND   CLEAR     53  32  44 SW14      29.76F
HASTINGS       CLEAR     51  28  41 SW3       29.77F
KEARNEY        CLEAR     52  27  37 CALM      29.78F
ORD            CLEAR     42  30  62 S6        29.74S
YORK           CLEAR     48  32  53 S10       29.76S
AURORA         CLEAR     48  30  49 SW10      29.76S
LEXINGTON      CLOUDY    47  28  47 CALM      29.76F
HOLDREGE       CLOUDY    52  25  34 SW7       29.76F
HEBRON         CLEAR     53  32  44 S17       29.77F

...NEBRASKA PANHANDLE...

CITY           SKY/WX    TMP DP  RH WIND       PRES   REMARKS
CHADRON        CLEAR     41  34  76 S8        29.74F
ALLIANCE       CLEAR     40  22  48 SW13      29.75F WCI  32
SCOTTSBLUFF    CLEAR     51  21  30 NW10      29.76F
SIDNEY         CLEAR     49  16  26 W12       29.78F

...WESTERN AND NORTH CENTRAL NEBRASKA...

CITY           SKY/WX    TMP DP  RH WIND       PRES   REMARKS
VALENTINE      CLEAR     40  28  62 W6        29.74R
AINSWORTH      CLEAR     46  31  56 NW6       29.72S
ONEILL         CLEAR     49  32  51 SW7       29.70F
BROKEN BOW     PTCLDY    41  31  67 N3        29.77S
IMPERIAL       PTCLDY    43  22  43 NW5       29.79F
NORTH PLATTE   CLEAR     34  26  72 CALM      29.78F
MCCOOK         CLOUDY    59  26  28 SW12      29.77F

...EASTERN NEBRASKA...

CITY           SKY/WX    TMP DP  RH WIND       PRES   REMARKS
NORFOLK        CLEAR     49  34  56 SW7       29.70F
SO SIOUX CITY  PTCLDY    52  36  54 S9        29.69F
TEKAMAH        CLEAR     50  37  61 S10       29.73S
COLUMBUS       CLEAR     46  30  53 W5        29.75S
ALBION         CLEAR     45  32  59 SE3       29.71F
OMAHA EPPLEY   CLEAR     47  36  65 SE14      29.76F
MILLARD        CLEAR     55  37  51 SE5       29.76F
LINCOLN        PTCLDY    54  35  48 S12       29.77F
NEBRASKA CITY  CLEAR     52  29  40 SW14      29.79F
BEATRICE       CLEAR     54  36  50 S13       29.78F
FALLS CITY     PTCLDY    53  33  46 S6        29.81F

...NORTHERN KANSAS...

CITY           SKY/WX    TMP DP  RH WIND       PRES   REMARKS
GOODLAND       CLOUDY    55  15  20 W16       29.84F
HILL CITY      CLEAR     56  25  30 SW8       29.81F
NORTON         CLEAR     54  19  26 SW8       29.77F
PHILLIPSBURG   CLEAR     55  25  30 S6        29.78F
SMITH CENTER   CLEAR     50  25  37 S7        29.79F
HAYS             N/A     49  25  39 SW6       29.84F
RUSSELL        CLOUDY    50  28  42 S13       29.82F
CONCORDIA      CLEAR     53  36  52 S16       29.80F
SALINA         CLEAR     53  37  54 S10       29.85F
TOPEKA         CLEAR     44  34  67 CALM      29.85F



USA.gov is the U.S. government's official web portal to all federal, state and local government web resources and services.